Current weather by "City, St" or "zip code"  
 
Advertise Here

Current Conditions: Southland Field, LA

Thunderstorm Light Rain in Vicinity


77.0 F

Last Updated on Aug 4 2020, 4:55 pm CDT
Humidity: 82%
Wind Speed: W 5.8 mph
Barometer 29.96 in
Dewpoint: 71.4 F
Visibility: 10.00 mi
Precip: --
Heat Index: NA
Wind Chill: NA
Current conditions at:

Southland Field, LA (KUXL)

Lat: 30.1314 Lon: 93.3761

Local Radar Image active severe weather and emergency alerts image image weather storm and storm spotter reports image weather observation monitoring service image
Local
Radar
Active
Alerts
Storm Reports Obs
Monitoring

Sign-up For Email & Text Message Weather Alert Notification Services


Advertise Here

Observation History for Southland Field, LA


Time Wind
(mph)
Vis
(mi)
Weather Precip (in) Temperature (F) Relative
Humidity
Wind
Chill
(F)
Heat
Index
(F)
Pressure
Air Dwpt altimeter
(in)
sea level
(mb)
Rmks
4:55 pm CDT W 5.8 10.00 Thunderstorm Light Rain in Vicinity -- 77.0 71.4 82% NA NA 29.96 M
3:55 pm CDT NW 31.1 G 41.4 10.00 Thunderstorm and Windy -- 91.0 72.7 54% NA 99 29.96 M
2:55 pm CDT SW 6.9 10.00 Partly Cloudy -- 94.0 73.0 51% NA 104 29.97 M
1:55 pm CDT SW 4.6 10.00 Partly Cloudy -- 94.0 75.0 55% NA 106 29.99 M
12:55 pm CDT S 3.5 7.00 Partly Cloudy -- 92.0 75.0 57% NA 103 30.01 M
11:55 am CDT W 5.8 10.00 Fair -- 91.0 73.6 58% NA 101 30.03 M
10:55 am CDT N 0.0 10.00 Fair -- 89.0 71.4 56% NA 96 30.03 M
10:35 am CDT N 0.0 10.00 Fair -- 88.0 70.3 56% NA 93 30.04 M
9:55 am CDT N 0.0 10.00 Fair -- 86.0 68.7 56% NA 90 30.03 M
9:35 am CDT N 0.0 10.00 Fair -- 86.0 69.1 57% NA 90 30.03 M
8:55 am CDT N 0.0 10.00 Fair -- 82.0 73.8 75% NA 88 30.02 M
8:35 am CDT N 0.0 10.00 Fair -- 82.0 74.7 79% NA 89 30.02 M
7:55 am CDT N 0.0 10.00 Fair -- 79.0 75.6 88% NA NA 30.02 M
6:55 am CDT N 0.0 10.00 Fair -- 76.0 74.1 93% NA NA 30.01 M
6:35 am CDT N 0.0 10.00 Partly Cloudy -- 76.0 73.8 91% NA NA 30.01 M
5:55 am CDT N 0.0 10.00 Mostly Cloudy -- 77.0 74.3 90% NA NA 30.00 M
4:55 am CDT N 0.0 10.00 Fair -- 76.0 74.3 93% NA NA 29.98 M
3:55 am CDT N 5.8 10.00 Partly Cloudy -- 78.0 75.2 93% NA NA 29.98 M
2:55 am CDT N 0.0 10.00 Partly Cloudy -- 78.0 75.4 92% NA NA 29.96 M
2:35 am CDT N 0.0 10.00 Partly Cloudy -- 78.0 75.4 92% NA NA 29.97 M
1:55 am CDT N 0.0 10.00 Partly Cloudy -- 78.0 75.6 91% NA NA 29.97 M
1:35 am CDT N 0.0 10.00 Partly Cloudy -- 79.0 75.7 89% NA NA 29.97 M
12:55 am CDT SW 3.5 10.00 Fair -- 79.0 75.6 89% NA NA 29.98 M
11:55 pm CDT SW 3.5 10.00 Fair -- 80.0 75.2 86% NA 85 29.98 M

Regional Weather Observation


Southland Field, LA (KUXL)

Thunderstorm Light Rain in Vicinity
77.0 F

Lake Charles Regional Airport, LA (KLCH)

Thunderstorm
78.0 F

Chenault Airpark, LA (KCWF)

Thunderstorm in Vicinity
84.0 F

De Ridder, Beauregard Parish Airport, LA (KDRI)

Partly Cloudy
92.0 F

Beaumont Municipal Airport, TX (KBMT)

Thunderstorm Light Rain
77.0 F

Jasper, Jasper County-Bell Field Airport, TX (KJAS)

Fair
94.0 F